Simultaneous Nadir Overpasses (SNOs) Predictions

Prediction of SNOs between GOES-16 and AQUA Satellite Orbit:

Table of predicted SNOs for the next 14.0 days since TLE Epoch: 11/28/2020
Index Date Time (GOES-16) GOES-16 Lat,Lon AQUA Lat,Lon Distance(km) Time Diff (sec)
1 11/30/2020 06:23:23 -0.00, -75.20 -0.59, -72.41 316.80 80
2 11/30/2020 18:44:47 0.00, -75.21 -0.52, -77.60 272.22 80
3 12/02/2020 18:35:16 -0.01, -75.23 0.12, -74.65 66.09 80
4 12/04/2020 18:23:05 -0.02, -75.25 0.76, -71.70 404.79 80
5 12/05/2020 06:44:20 0.02, -75.25 0.37, -76.84 181.37 80
6 12/07/2020 06:29:29 0.02, -75.28 -0.28, -73.89 157.83 80
7 12/07/2020 18:50:53 -0.02, -75.29 -0.83, -79.08 431.39 80
8 12/09/2020 06:17:17 0.02, -75.31 -0.89, -70.93 497.63 80
9 12/09/2020 18:38:42 -0.02, -75.32 -0.17, -76.13 91.41 80
10 12/11/2020 18:29:10 -0.03, -75.36 0.44, -73.17 249.15 80
11 12/12/2020 06:50:25 0.03, -75.37 0.68, -78.32 335.93 80
